010821 586  0.4+  0.1+    010825 046  0.9+  0.5+    010924 170  0.2-  0.5-  

010821 586  0.6+  0.1-    010825 170  0.6-  0.3+    010928 349  0.2-  0.2-  

010821 232  0.4-  1.3+    010825 213  0.0   0.0     010928 372  0.5+  0.2-  

010821 586  0.9+  0.3-    010825 213  1.5-  0.3+    010928 349  0.1+  0.1-  

010821 170  0.6+  0.6-    010825 170  0.3-  0.3+    010928 349  0.3-  0.0   

010821 232 (3.1+  0.8+)   010825 213  0.6-  0.1+    010928 349  0.4-  0.2-  

010821 170  1.5+  0.5-    010825 213  0.7+  0.1+    010928 372  0.2-  0.6-  

010821 586  0.9+  0.2-    010825 170  0.0   0.2+    011002 349  0.4-  0.2+  

010821 586  0.7+  0.1-    010825 157 (2.4-  0.6+)   011002 349  0.4-  0.4+  

010821 586  0.8+  0.3-    010825 157 (0.2-  2.1+)   011002 349  0.7-  0.0   

010821 586  0.7+  0.3-    010825 213  0.6-  0.0     011007 340  0.3-  0.6-  

010821 586  0.6+  0.2-    010825 213  0.6-  0.4+    011007 340  0.1-  0.8-  

010821 232  0.3-  0.1-    010825 213  0.5-  0.3-    011007 340  0.6+  1.4-  

010821 232  1.7+  0.0     010825 213  0.3-  0.1+    011012 349  0.6-  0.2-  

010821 458 (1.4-  2.1-)   010825 213  1.8-  0.2+    011012 349  0.1-  0.0   

010821 458  0.6-  0.5-    010825 213  0.5-  0.1+    011012 349  0.1-  0.1+  

010821 762  0.3+  0.3+    010825 170  0.6-  0.1-    011012 349  0.7-  0.5+  

010821 762  0.9-  0.8+    010825 234  1.2+  0.9+    011013 046  0.5+  0.1-  

010821 762  1.0-  1.7-    010825 234  1.2+  0.5+    011013 046  0.4+  0.0   

010821 762 (2.7-  0.9-)   010825 234  0.7+  0.2+    011013 046  0.4+  0.1-  

010821 762  1.5-  0.3-    010825 234  0.7+  0.6+    011013 046  0.7+  0.2-  

010821 762  0.5+  0.1+    010825 234  0.7+  0.5+    011013 372  0.1-  0.2-  

010821 762  0.5-  0.5-    010825 234  0.4+  0.9+    011013 372  0.8+  0.4-  

010821 762 (3.6-  0.8+)   010826 235  0.4+  0.2+    011019 349  0.3-  0.2+  

010821 762  0.2-  0.0     010826 204  0.5+  0.5+    011019 349  0.7-  0.4+  

010821 762  0.1-  0.6+    010826 213  0.7-  0.3-    011019 349  0.6-  0.6+  

010821 762  0.8+  0.2-    010826 204  0.4+  0.3+    011026 349  0.3-  0.2+  

010821 372  0.0   0.5+    010826 213  1.1-  0.0     011026 349  1.0-  0.4-  

010821 300  0.2+  0.2-    010826 204 (2.2+  2.2+)   011026 349  0.7-  0.1+  

010821 300  0.2-  0.0     010826 213  0.6-  0.2-    011027 587  0.4-  1.6-  

010821 300  0.1+  0.2+    010826 213  0.8+  0.1+    011103 170  1.8-  0.2-  

010821 300  0.4+  0.2-    010826 952  0.3+  0.5+    011103 170  1.5-  0.1+  

010821 300  0.5+  0.2-    010826 952  0.5+  0.3+    011106 349  0.2-  0.3-  

010821 372  0.3-  0.2+    010826 952  1.0+  0.4+    011106 349  0.2-  1.1-  

010821 372  0.9+  0.2-    010826 213  1.8-  0.2+    011106 349  0.3-  0.2-  

010822 611 (3.1-  2.3-)   010826 213  1.2-  1.0-    011110 349  0.2-  0.3+  

010822 611 (2.4-  1.4-)   010826 213  0.4-  0.2+    011110 349  0.3-  0.8+  

010822 952  0.8-  0.0     010826 213  1.0-  0.3+    011110 349  0.0   0.2-  

010822 952  1.1-  0.5+    010826 232  1.1-  0.9+    011112 342  1.7-  0.2+  

010822 952  0.1-  1.0+    010826 232  0.7+  0.2-    011112 342  1.5-  0.1+  

010822 952  0.4-  0.6+    010826 213  0.4-  0.3+    011114 372  0.6-  1.2+  

010822 952  0.0   0.1-    010826 213  0.3+  0.2+    011116 046  0.2+  0.1+  

010822 213  0.9+  0.2+    010826 232  0.7+  0.3+    011116 046  0.2-  0.3-  

010822 952  0.2-  0.6+    010826 232  1.1+  0.3+    011116 046  0.3-  0.1-  

010822 213  0.1+  0.3-    010826 213  1.6-  0.0     011116 046  0.2-  0.2-  

010822 213  1.0-  0.5-    010826 213  0.3-  0.1+    011118 608  0.6-  0.1+  

010822 213  0.2-  0.1-    010826 213  0.1+  0.7-    011118 608  0.2-  0.3-  

010822 952  0.1+  0.1+    010826 213  1.2-  0.6+    011118 608  0.7-  0.5+  

010822 213  0.5-  0.6-    010826 372  0.6-  0.3+    011121 204  0.9-  0.2+  

010822 941  1.7+  0.9-    010826 372  0.6-  0.0     011121 204  1.3-  0.2+  

010822 213  0.1+  0.2-    010827 619  0.7-  0.3-    011121 204 (4.1-  3.6+) 

010822 213  0.7-  0.1+    010827 619  0.4-  0.6-    011123 349 (2.0+  1.1-) 

010822 941  1.5+  0.8-    010827 619  1.8-  0.7-    011123 349  0.9+  0.6-  

010822 213  0.3-  0.4-    010827 939  0.7-  0.1+    011123 349  1.5+  0.8-  

010822 941 (2.3+  0.8-)   010827 170  1.7+  0.4-    011124 372  0.6-  0.8+  

010822 213  0.2-  0.6-    010827 939  1.8-  0.1+    011126 372  0.0   1.0+  

010822 213  1.0-  0.1+    010827 170  0.3+  0.3-    011127 349  1.1-  0.2+  

010822 213  0.9-  0.3-    010827 372  0.6-  0.3-    011127 349  0.7-  0.6+  

010822 213  0.0   0.8-    010827 300  0.2-  0.2-    011127 349  1.4-  0.3+  

010822 213  0.1+  0.1-    010827 300  0.3+  0.1+    011130 349  0.2-  0.9+  

010822 213  0.3+  0.6-    010827 300  0.3+  0.3-    011130 349  0.6-  0.4+  

010822 586  0.5+  0.5+    010827 300  0.6+  0.5-    011205 704 (2.3-  1.3+) 

010822 586  0.4+  0.4+    010827 300  0.2+  0.6-    011205 704  1.7-  1.8+  

010822 586  0.6+  0.4+    010827 300  0.0   0.1-    011205 704  1.0-  0.5+  

010822 586  0.3+  0.4+    010827 360  1.1+  0.0     011205 704  1.8-  1.0+  

010822 586  0.5+  0.5+    010827 360  1.1+  0.0     011205 704 (2.7-  0.7+) 

010822 586  0.5+  0.4+    010828 372  1.1+  0.7+    011222 349 (2.1-  2.2+) 

010822 954  0.1-  0.9+    010829 561  1.5-  1.9+    011222 349 (1.7-  3.1+) 

010822 954  0.2-  0.8+    010829 561  1.5+  0.3-    2002/                   

010822 342  0.5-  0.7-    010829 561  1.3+  0.4+    020113 704 (1.4+  2.0+) 

010822 342  0.2-  0.6-    010829 561  0.4+  0.4+    020113 704  0.1-  0.4+  

010822 349  0.8-  0.1-    010829 561  1.0-  1.4+    020113 704  1.5+  0.3-  

010822 349  1.1-  0.3-    010829 170  0.2+  0.1-    020113 704  0.6+  0.6+  

010822 342  0.2-  0.3-    010829 170  0.4-  0.0     020113 704 (3.0+  0.1+) 

010822 352  0.6-  1.5-    010830 561  0.3+  0.4+    020124 360  0.4+  0.3-  

010822 352  0.8-  1.0-    010830 561  1.4+  0.3+    020124 360  0.0   0.5-  

010822 352  1.7-  0.7-    010830 561  0.0   1.4+    020125 170  1.9+  0.5+  

010822 349  0.5-  0.0     010830 561  1.1+  0.2+    020125 170  0.5-  0.2+  

010822 349  0.7-  0.2-    010830 561  0.7+  0.6+    020125 322  0.2-  0.8-  

010823 170  1.0-  0.8-    010831 372  1.3+  0.7+    020125 322  0.5+  1.9+  

010823 170 (5.7+  0.2-)   010831 402  0.7+  0.5-    020202 170 (2.2-  6.7-) 

010823 159  1.0-  0.5+    010831 402  1.3+  0.6+    020207 360  0.4+  0.2-  

010823 159  1.5-  0.2+    010831 402  0.8+  0.1-    020207 360  0.3-  0.0   

010823 159  1.3-  0.4+    010904 349  0.1-  0.2+    020213 704  1.3+  0.4+  

010823 159  1.1-  0.2+    010904 349  0.2+  0.2+    020213 704  1.3+  0.3-  

010823 159  1.5-  0.7-    010904 349  0.2+  0.1+    020213 704 (2.2+  0.4-) 

010823 170  1.3-  0.7-    010904 349  0.0   0.2+    020213 704  0.2+  0.3-  

010823 159  0.7+  0.1-    010908 213  0.0   0.2-    020216 118  0.2+  0.2+  

010823 159  1.0-  0.0     010908 213  1.2+  1.5-    020216 118  1.3+  0.1+  

010823 159  0.1-  0.4-    010908 213  0.5-  0.7-    020216 118  1.6+  0.4-  

010823 170  0.2+  1.3-    010908 170  0.1-  0.5-    020216 118  1.2+  0.3+  

010823 232  0.5+  0.4-    010908 170  0.3-  0.7-    020223 170  1.8-  0.5-  

010823 458  0.3-  1.6-    010908 941  0.4+  0.9-    020308 360  0.2+  0.5-  

010823 458  0.6-  1.0-    010908 941  1.7+  0.6-    020308 360  0.3+  0.9-  

010823 232  0.9-  0.7-    010908 941  1.5+  0.7-    

010823 232  1.3-  0.4-    010916 170  0.9-  0.0     





 106P/Schuster 

Epoch 2007 Apr. 10.0 TT = JDT 2454200.5  

T 2007 Apr. 2.22179 TT                                  Nakano

q   1.5561338            (2000.0)            P               Q

n   0.13485633     Peri.  355.82894     +0.68567135     -0.67766740

a   3.7660708      Node    50.61223     +0.67739939     +0.46041934

e   0.5868018      Incl.   20.11133     +0.26642986     +0.57339421

P   7.31

From 194 observations 1977-2000, mean residual 0".74.

   Nongravitational parameters A1 = +0.12 +/- 0.02, A2 = +0.0070 +/- 0.0004.

Residuals in seconds of arc 

1977/                     921130 360  0.1+  0.5-    991202 704 (9.1+  2.5+) 

770905 809  2.1+  2.3+    921130 360  0.0   0.2-    991202 704 (2.1+  0.8+) 

770906 809  0.8+  0.6+    921201 691  0.4-  0.9-    991202 704 (7.6+  2.4+) 

770906 809  1.5+  0.7+    921201 691  0.6-  0.7-    991202 704 (2.0+  4.1-) 

770907 809  0.8+  0.9+    921201 691  0.1-  1.0-    991203 704 (7.2+  1.1+) 

770907 809  1.4-  0.1-    921218 596 (6.6-  0.1-)   991203 704 (4.1+  0.6+) 

770907 809  0.8-  0.2+    921218 596(10.3-  2.7+)   991203 704 (4.1+  0.8+) 

770911 809  0.1-  0.4-    1999/                     991203 704 (4.3+  1.6+) 

770916 413 (2.8-  3.3+)   990901 413  0.1+  0.2-    991208 360  0.3-  0.1-  

771009 809  1.1+  1.3-    990901 413  0.2+  0.2-    991208 360  0.0   0.0   

771010 809  0.4+  1.4-    990914 413  0.2+  0.2-    991209 699 (6.6+  1.9+) 

771010 809  0.6+  0.2-    990914 413  0.3+  0.2-    991210 349  0.2-  0.7-  

771011 809  1.0+  1.0-    991006 704  0.6-  0.6-    991210 349  0.0   0.3-  

771012 809  1.2+  0.7-    991006 704  0.3-  0.3+    991210 349  0.1-  0.2-  

771013 809  0.2+  0.6-    991006 704  1.4-  0.5-    991221 355  0.1-  0.2+  

771013 809  1.1+  0.4-    991006 704  1.4-  1.2-    991221 355  0.4+  0.5+  

771013 809  1.4+  1.4-    991009 900  1.5-  1.9+    991221 355  0.5+  0.4+  

771014 809  0.9+  0.6-    991009 900  1.1-  1.8+    991222 046  0.5-  0.1-  

771015 809  0.9+  1.4-    991017 360  0.1-  0.1+    991222 046  0.9-  0.2-  

771015 809  0.8-  0.2+    991017 360  0.1-  0.1+    991222 046  0.6-  0.0   

771016 809  0.5-  0.7-    991020 897  0.8+  0.5+    991222 046  0.2-  0.2-  

771017 809  0.2+  1.0-    991020 897  0.7+  0.5+    991222 118  0.0   0.4+  

771019 805  0.0   0.6+    991020 349  0.6-  0.2-    991222 118  0.3-  0.3+  

771031 323  0.8-  0.8-    991020 349  0.4-  0.0     991223 349  0.9-  0.3-  

771108 809  0.5+  1.0-    991020 349  0.4-  0.4-    991223 349  0.2-  0.4-  

